Simultaneous Nadir Overpasses (SNOs) Predictions

Prediction of SNOs between GOES-14 and NOAA-20 Satellite Orbit:

Table of predicted SNOs for the next 14.0 days since TLE Epoch: 3/5/2022
Index Date Time (GOES-14) GOES-14 Lat,Lon NOAA-20 Lat,Lon Distance(km) Time Diff (sec)
1 03/06/2022 08:23:53 0.08,-104.61 0.19,-105.00 45.27 80
2 03/07/2022 08:07:49 0.08,-104.61 -0.83,-100.47 471.89 80
3 03/08/2022 20:29:47 -0.08,-104.43 -0.39,-105.77 152.91 80
4 03/09/2022 20:08:23 -0.08,-104.42 0.63,-101.24 362.60 80
5 03/11/2022 08:30:13 0.09,-104.60 0.49,-106.53 218.53 80
6 03/12/2022 08:14:09 0.09,-104.61 -0.47,-101.99 298.55 80
7 03/13/2022 20:36:06 -0.09,-104.45 -0.75,-107.29 323.64 80
8 03/14/2022 20:14:43 -0.10,-104.44 0.28,-102.76 191.77 80
9 03/16/2022 08:36:33 0.10,-104.60 0.85,-108.04 392.24 80
10 03/17/2022 08:20:29 0.10,-104.61 -0.12,-103.50 125.01 80
11 03/18/2022 20:42:26 -0.10,-104.48 -1.09,-108.81 493.97 80
